Location: Arboucave
(43.6130°N, 0.4343°W)
Time: 08:27:29
(UTC+00:00)

Cosmos 1763 Rocket - Pass Details

Date: 17 November 2025
Orbit: 728 x 774 km, 74.0° (Epoch: 13 December)

Event Time Altitude Azimuth Distance (km) Brightness Sun altitude
Rises 17:28:26 0° 341° (NNW) 3,237 6.8 -9.9°
Reaches altitude 10° 17:30:51 10° 345° (NNW) 2,300 6.0 -10.3°
Maximum altitude 17:36:03 67° 68° (ENE) 819 3.4 -11.2°
Drops below altitude 10° 17:41:08 10° 150° (SSE) 2,254 5.8 -12.1°
Sets 17:43:29 0° 154° (SSE) 3,166 6.6 -12.5°
